This is the latest recevied weather packets stored in our database for station/object W4NDF-13. If no packets are shown the sender has not sent any weather packets the latest 1 day(s).
| Time | Temp. | Humidity | Pressure | Rain* | Wind** | Luminosity | Snow |
|---|---|---|---|---|---|---|---|
| 1778036859 | 23.33° C | 89% | 1013 hPa | 0 mm | 1.79 m/s, 170° | 0 W/m² | - |
| 1778036556 | 23.89° C | 89% | 1013.2 hPa | 0 mm | 1.79 m/s, 167° | 0 W/m² | - |
| 1778036253 | 23.89° C | 88% | 1013.1 hPa | 0 mm | 1.34 m/s, 216° | 0 W/m² | - |
| 1778035950 | 23.89° C | 88% | 1012.9 hPa | 0 mm | 1.79 m/s, 144° | 0 W/m² | - |
| 1778035646 | 23.89° C | 88% | 1012.9 hPa | 0 mm | 3.58 m/s, 130° | 0 W/m² | - |
| 1778035343 | 23.89° C | 88% | 1012.8 hPa | 0 mm | 2.24 m/s, 134° | 0 W/m² | - |
| 1778035039 | 23.89° C | 87% | 1012.6 hPa | 0 mm | 0.89 m/s, 192° | 0 W/m² | - |
| 1778034736 | 23.89° C | 87% | 1012.7 hPa | 0 mm | 1.79 m/s, 147° | 0 W/m² | - |
| 1778034433 | 23.89° C | 86% | 1012.7 hPa | 0 mm | 1.34 m/s, 150° | 0 W/m² | - |
| 1778034131 | 23.89° C | 86% | 1012.9 hPa | 0 mm | 1.79 m/s, 206° | 0 W/m² | - |
| 1778033829 | 23.89° C | 87% | 1013 hPa | 0 mm | 1.34 m/s, 199° | 0 W/m² | - |
| 1778033526 | 23.89° C | 87% | 1013.2 hPa | 0 mm | 1.79 m/s, 174° | 0 W/m² | - |
| 1778033222 | 23.89° C | 87% | 1013.1 hPa | 0 mm | 0.45 m/s, 166° | 0 W/m² | - |
| 1778032920 | 23.89° C | 86% | 1013.2 hPa | 0 mm | 2.68 m/s, 168° | 0 W/m² | - |
| 1778032618 | 24.44° C | 85% | 1012.9 hPa | 0 mm | 1.79 m/s, 206° | 0 W/m² | - |
| 1778032315 | 24.44° C | 84% | 1013.2 hPa | 0 mm | 1.34 m/s, 172° | 0 W/m² | - |
| 1778032012 | 24.44° C | 83% | 1013.3 hPa | 0 mm | 2.24 m/s, 211° | 0 W/m² | - |
| 1778031708 | 24.44° C | 84% | 1013 hPa | 0 mm | 0.89 m/s, 242° | 0 W/m² | - |
| 1778031406 | 24.44° C | 85% | 1012.9 hPa | 0 mm | 0.89 m/s, 197° | 0 W/m² | - |
| 1778031103 | 24.44° C | 85% | 1012.9 hPa | 0 mm | 0.45 m/s, 192° | 0 W/m² | - |
| 1778030799 | 24.44° C | 84% | 1012.9 hPa | 0 mm | 0.89 m/s, 153° | 0 W/m² | - |
| 1778030496 | 24.44° C | 83% | 1012.9 hPa | 0 mm | 2.24 m/s, 196° | 0 W/m² | - |
| 1778030193 | 24.44° C | 83% | 1013.1 hPa | 0 mm | 2.68 m/s, 207° | 0 W/m² | - |
| 1778029889 | 24.44° C | 82% | 1012.8 hPa | 0 mm | 1.79 m/s, 189° | 0 W/m² | - |
| 1778029588 | 25° C | 82% | 1012.5 hPa | 0 mm | 1.34 m/s, 225° | 0 W/m² | - |
* Rain latest hour (hover to see other rain measurements)
** Current wind speed in m/s (hover to see current wind gust speed)